Regional Weather Roundup
Issued by NWS

Home | Current Version | Previous Version | Graphics & Text | Print | Product List | Glossary On
Versions: 1 2 3 4 5 6 7 8 9 10 11 12 13 14 15 16 17 18 19 20 21 22 23 24 25 26 27 28 29 30 31 32 33 34 35 36 37 38 39 40 41 42 43 44 45 46 47 48 49 50
000
ASUS43 KDMX 022107
RWRIA

WEATHER ROUNDUP FOR IOWA
NATIONAL WEATHER SERVICE DES MOINES IA
400 PM CDT WED SEP 02 2015

NOTE: "FAIR" INDICATES FEW OR NO CLOUDS BELOW 12,000 FEET WITH NO
SIGNIFICANT WEATHER AND/OR OBSTRUCTIONS TO VISIBILITY.

* - THESE STATIONS ARE NOT NWS STATIONS...THUS NOT UNDER NWS
QUALITY CONTROL.  THEY ALSO DO NOT REPORT WEATHER SUCH
AS PRECIPITATION OR FOG.

IAZ001>003-012>014-020>022-031>034-043>046-022200-
   NORTHWEST IOWA

CITY           SKY/WX    TMP DP  RH WIND       PRES   REMARKS
CARROLL *      SUNNY     84  73  70 S14G25    29.87F HX  91
CHEROKEE *       N/A     86  75  70 S12       29.85F HX  95
DENISON *      SUNNY     82  73  74 S13G21    29.86F HX  88
LE MARS *      SUNNY     86  73  66 S15       29.84F HX  93
ORANGE CITY *  SUNNY     84  73  70 S15G22    29.85S HX  91
SHELDON *      SUNNY     84  73  70 S13       29.84S HAZE    HX  91
SIOUX CITY       N/A     87  69  54 S13       29.83F HX  91
SPENCER          N/A     86  71  60 S14       29.86F HX  91
STORM LAKE *   SUNNY     82  73  74 SW12G20   29.88F HX  88
$$

IAZ055>058-069>071-079>083-090>094-022200-
   SOUTHWEST IOWA

CITY           SKY/WX    TMP DP  RH WIND       PRES   REMARKS
ATLANTIC *     SUNNY     86  72  62 S20       29.88F HX  92
AUDUBON *      SUNNY     84  72  65 S15G23    29.90F HX  89
CLARINDA *     SUNNY     86  72  62 S14G21    29.91F HX  92
COUNCIL BLFS * SUNNY     88  72  58 S15G22    29.87F HX  94
CRESTON *      SUNNY     84  70  61 S20       29.92F HX  88
LAMONI           N/A     85  69  58 SW22G29   29.92F HX  89
RED OAK *      SUNNY     86  72  62 S21       29.89F HX  92
SHENANDOAH *   SUNNY     88  72  58 S16G22    29.89F HX  94
$$

IAZ047>049-059>061-072>074-084-022200-
   CENTRAL IOWA

CITY           SKY/WX    TMP DP  RH WIND       PRES   REMARKS
AMES             N/A     87  69  54 SW15      29.88F HX  91
ANKENY *       SUNNY     88  70  55 SW14G24   29.89F HX  92
CHARITON *     SUNNY     86  66  51 S16G23    29.92F HX  88
DES MOINES       N/A     89  66  46 SW15      29.89F HX  91
GRINNELL*        N/A     86  68  54 S12       29.93F HX  89
KNOXVILLE *    SUNNY     86  68  54 S12G18    29.91F HX  89
MARSHALLTOWN     N/A     86  71  60 S15       29.90F HX  91
PELLA *          N/A     88  72  58 SW9       29.93F HX  94
PERRY *          N/A     88  70  55 SW14G21   29.88F HX  92
$$

IAZ004>006-015-016-023>025-035-036-022200-
   NORTH CENTRAL IOWA

CITY           SKY/WX    TMP DP  RH WIND       PRES   REMARKS
ALGONA *       SUNNY     84  72  65 SW14      29.87F HX  89
CLARION *      SUNNY     84  72  65 SW14G20   29.88F HX  89
ESTHERVILLE      N/A     84  72  67 S13       29.86F HX  89
FORT DODGE *     N/A     86  70  58 SW14G22   29.88F HX  90
MASON CITY       N/A     86  72  62 SW15      29.89F HX  92
FOREST CITY *  SUNNY     84  68  58 SW12G22   29.88F HX  87
IOWA FALLS *     N/A     86  72  62 S10G16    29.91F HX  92
$$

IAZ007>011-017>019-026>030-037>042-050>054-066-022200-
   NORTHEAST IOWA

CITY           SKY/WX    TMP DP  RH WIND       PRES   REMARKS
CEDAR RAPIDS     N/A     83  71  67 S14       29.94F HX  87
CHARLES CITY * CLOUDY    84  73  70 SW13      29.90F HX  91
CLINTON *        N/A     82  70  65 S9        29.99F HX  86
DECORAH *      CLOUDY    79  72  78 VRB6      29.92F HX  82
DUBUQUE        PTSUNNY   82  70  66 S14       29.96F HX  86
MONTICELLO *   CLOUDY    82  70  65 S12       29.94F HX  86
OELWEIN *      PTSUNNY   84  72  65 S13G20    29.93F HX  89
WATERLOO         N/A     86  69  56 SW14      29.89F HX  90
$$

IAZ064-065-067-068-078-022200-
   EAST CENTRAL IOWA

CITY           SKY/WX    TMP DP  RH WIND       PRES   REMARKS
DAVENPORT        N/A     83  70  64 S7        29.97F HX  87
IOWA CITY        N/A     84  69  60 S13       29.96F HX  88
MT. PLEASANT * PTSUNNY   86  64  48 S9        29.96F HX  87
MUSCATINE *    CLOUDY    86  70  58 S9        29.95F HX  90
QUAD CITIES      N/A     85  69  58 SW7       29.96F HX  89
$$

IAZ062-063-075>077-085>089-095>099-022200-
   SOUTHEAST IOWA

CITY           SKY/WX    TMP DP  RH WIND       PRES   REMARKS
BURLINGTON       N/A     86  71  60 S8        29.96F HX  91
FAIRFIELD *    SUNNY     84  68  58 S9G15     29.96F HX  87
FORT MADISON * SUNNY     88  70  55 S7        29.97F HX  92
KEOKUK *       SUNNY     90  68  48 S9G16     29.95F HX  93
OSKALOOSA *      N/A     88  66  48 S8        29.94F HX  90
CENTERVILLE *  SUNNY     84  70  61 SW13      29.96F HX  88
OTTUMWA          N/A     85  70  60 MISG      29.93F HX  89
WASHINGTON *     N/A    N/A N/A N/A MISG        N/A
$$

ABBREVIATIONS USED IN REMARKS
   TC - TEMPERATURES IN CELSIUS
  WCI - WIND CHILL INDEX
   HX - HEAT INDEX
  VSB - VISIBILITY
$$



USA.gov is the U.S. government's official web portal to all federal, state and local government web resources and services.